Home > Weather > Greeley > Past weeks

Flag for USA Past Weather in Greeley, Colorado, USA — Yesterday and Last 2 Weeks

Now
57 °F

Clear.


Feels Like: 56 °F
Forecast: 56 / 90 °F
Wind: 6 mph from Northwest

Location: Greeley / Weld

Current Time: Jun 27, 2016 at 5:23:08 AM

Latest Report: Jun 27, 2016 at 4:55 AM


Visibility: 10 mi

Pressure: 30.25 "Hg (25.53 "Hg at 1424m altitude)

Humidity: 88%

Dew Point: 54 °F

Location of GreeleyLocation

Past Weather in Greeley — Graph

°F

Greeley Temperature Yesterday

Maximum temperature yesterday: 91 °F (at 5:35 PM)
Minimum temperature yesterday: 70 °F (at 11:35 PM)
Average temperature yesterday: 79 °F

High & Low Weather Summary for the Past Weeks

 TemperatureHumidityPressure
High104 °F (Jun 21, 3:35 PM)94% (Jun 13, 2:35 AM)30.44 "Hg (Jun 13, 2:35 AM)
Low48 °F (Jun 15, 4:55 AM)10% (Jun 19, 2:35 PM)29.84 "Hg (Jun 15, 7:55 PM)
Average74 °F50%30.10 "Hg
* Reported Jun 12 3:15 AM — Jun 27 3:55 AM, Greeley, Weather by CustomWeather, © 2016

Note: Actual official high and low records may vary slightly from our data, if they occured in-between our weather recording intervals... More about our weather records

Advertising

Greeley Weather History for the Previous 24 Hours

Scroll right to see more
 ConditionsComfort  
Time TempWeatherWind HumidityBarometerVisibility
3:55 AM
Mon, Jun 27
59 °FClear.9 mph82%30.24 "Hg10 mi
3:35 AM57 °FClear.6 mph88%30.24 "Hg10 mi
3:15 AM59 °FClear.5 mph77%30.23 "Hg10 mi
2:55 AM61 °FClear.7 mph72%30.23 "Hg10 mi
2:35 AM63 °FClear.8 mph68%30.23 "Hg10 mi
2:15 AM63 °FClear.9 mph68%30.23 "Hg10 mi
1:55 AM63 °FClear.10 mph68%30.23 "Hg10 mi
1:35 AM63 °FClear.9 mph73%30.23 "Hg10 mi
1:15 AM64 °FClear.7 mph68%30.23 "Hg10 mi
12:55 AM64 °FClear.7 mph68%30.23 "Hg10 mi
12:35 AM64 °FClear.7 mph64%30.22 "Hg10 mi
12:15 AM66 °FPassing clouds.6 mph64%30.21 "Hg10 mi
11:55 PM
Sun, Jun 26
70 °FClear.5 mph50%30.22 "Hg10 mi
11:35 PM70 °FClear.7 mph50%30.21 "Hg10 mi
11:15 PM72 °FClear.No wind47%30.22 "Hg10 mi
10:55 PM72 °FPassing clouds.9 mph44%30.21 "Hg10 mi
10:35 PM72 °FPassing clouds.7 mph47%30.21 "Hg10 mi
10:15 PM73 °FClear.9 mph38%30.20 "Hg10 mi
9:55 PM73 °FClear.10 mph38%30.20 "Hg10 mi
9:35 PM75 °FClear.8 mph36%30.19 "Hg10 mi
9:15 PM75 °FSunny.9 mph39%30.18 "Hg7 mi
8:55 PM77 °FSunny.7 mph36%30.18 "HgN/A
8:35 PM79 °FSunny.7 mph37%30.17 "HgN/A
8:15 PM81 °FSunny.6 mph37%30.16 "HgN/A
7:55 PM84 °FSunny.3 mph33%30.16 "HgN/A
7:35 PM86 °FSunny.3 mph27%30.15 "HgN/A
7:15 PM86 °FSunny.6 mph27%30.15 "HgN/A
6:55 PM88 °FSunny.7 mph24%30.14 "HgN/A
6:35 PM88 °FSunny.8 mph22%30.14 "HgN/A
5:55 PM90 °FSunny.14 mph21%30.13 "HgN/A
5:35 PM91 °FHot.12 mph15%30.13 "HgN/A
Weather by CustomWeather, © 2016

See weather overviewHow to use our weather pages